K6OUA-11 Weather Reports


time (UTC)temp
C
wind
direction
speed
KPH
gust
KPH
rain 1hr
cm
rain 24hr
cm
rain mn
cm
humidity
%
barometer
mb
20190615223619 26 249 4.8 11.3 0.00 0.00 0.00 55 1006.9
20190615223323 26 240 6.4 11.3 0.00 0.00 0.00 55 1006.9
20190615223020 26 261 6.4 9.7 0.00 0.00 0.00 55 1007.0
20190615222414 26 283 11.3 11.3 0.00 0.00 0.00 55 1007.1
20190615222115 26 227 4.8 12.9 0.00 0.00 0.00 55 1007.1
20190615221511 26 272 9.7 11.3 0.00 0.00 0.00 56 1007.1
20190615221212 26 258 6.4 11.3 0.00 0.00 0.00 56 1007.1
20190615220909 26 249 3.2 11.3 0.00 0.00 0.00 56 1007.1
20190615220613 26 256 6.4 11.3 0.00 0.00 0.00 56 1007.1
20190615220306 26 220 0.0 6.4 0.00 0.00 0.00 57 1007.1
20190615215709 26 270 1.6 8.0 0.00 0.00 0.00 57 1007.2
20190615215405 26 238 4.8 11.3 0.00 0.00 0.00 57 1007.4
20190615215102 26 238 8.0 12.9 0.00 0.00 0.00 57 1007.2
20190615214507 26 249 8.0 17.7 0.00 0.00 0.00 58 1007.3
20190615160355 17 90 3.2 9.7 0.00 0.00 0.00 87 1008.3
20190615160057 17 90 6.4 9.7 0.00 0.00 0.00 87 1008.2
20190615155757 17 114 4.8 8.0 0.00 0.00 0.00 88 1008.3
20190615155452 16 117 3.2 6.4 0.00 0.00 0.00 88 1008.1
20190615154550 16 117 4.8 6.4 0.00 0.00 0.00 88 1008.4
20190615154249 16 168 1.6 6.4 0.00 0.00 0.00 88 1008.2
20190615153953 16 117 6.4 9.7 0.00 0.00 0.00 88 1008.3
20190615153645 16 123 4.8 8.0 0.00 0.00 0.00 88 1008.5
20190615153350 16 101 8.0 8.0 0.00 0.00 0.00 88 1008.1
20190615152745 16 132 3.2 4.8 0.00 0.00 0.00 88 1008.5
20190615152441 16 132 4.8 4.8 0.00 0.00 0.00 89 1008.4
20190615152146 16 155 1.6 6.4 0.00 0.00 0.00 89 1008.4
20190615151842 16 135 3.2 8.0 0.00 0.00 0.00 89 1008.3
20190615151537 16 112 8.0 8.0 0.00 0.00 0.00 90 1008.5
20190615151242 16 204 1.6 8.0 0.00 0.00 0.00 89 1008.3
20190615150940 16 121 1.6 8.0 0.00 0.00 0.00 90 1008.4
20190615150639 16 126 4.8 8.0 0.00 0.00 0.00 90 1008.4
20190615150333 16 132 4.8 8.0 0.00 0.00 0.00 90 1008.4
20190615150042 16 139 1.6 4.8 0.00 0.00 0.00 90 1008.4
20190615145734 16 123 4.8 6.4 0.00 0.00 0.00 90 1008.4
20190615145434 16 153 3.2 6.4 0.00 0.00 0.00 90 1008.3
20190615145141 16 153 1.6 8.0 0.00 0.00 0.00 91 1008.3
20190615144228 16 126 3.2 6.4 0.00 0.00 0.00 91 1008.3
20190615143926 16 164 1.6 6.4 0.00 0.00 0.00 90 1008.3
20190615143325 16 164 1.6 3.2 0.00 0.00 0.00 91 1008.3
20190615143021 15 135 3.2 4.8 0.00 0.00 0.00 91 1008.2
20190615142722 16 135 3.2 4.8 0.00 0.00 0.00 91 1008.4
20190615141820 15 130 3.2 8.0 0.00 0.00 0.00 91 1008.3
20190615141218 15 139 1.6 6.4 0.00 0.00 0.00 91 1008.1
20190615140913 15 117 4.8 6.4 0.00 0.00 0.00 91 1008.1
20190615140613 15 130 3.2 6.4 0.00 0.00 0.00 91 1008.1
20190615140311 15 90 4.8 8.0 0.00 0.00 0.00 91 1008.1
20190615140014 15 110 8.0 8.0 0.00 0.00 0.00 91 1008.0
20190615135712 15 67 3.2 6.4 0.00 0.00 0.00 91 1008.1
20190615135408 15 112 4.8 8.0 0.00 0.00 0.00 91 1008.0
20190615135109 15 150 4.8 6.4 0.00 0.00 0.00 91 1008.0
20190615134805 15 112 3.2 4.8 0.00 0.00 0.00 92 1008.0
20190615134504 15 90 0.0 4.8 0.00 0.00 0.00 92 1007.9
20190615134210 15 157 3.2 9.7 0.00 0.00 0.00 92 1007.9
20190615133902 15 150 4.8 9.7 0.00 0.00 0.00 92 1007.8
20190615133000 15 132 8.0 8.0 0.00 0.00 0.00 92 1007.6
20190615132658 15 128 3.2 9.7 0.00 0.00 0.00 92 1007.5
20190615132403 15 92 6.4 9.7 0.00 0.00 0.00 92 1007.5
20190615132055 15 117 4.8 6.4 0.00 0.00 0.00 93 1007.5
20190615131754 15 90 4.8 8.0 0.00 0.00 0.00 92 1007.4
20190615131458 15 112 6.4 9.7 0.00 0.00 0.00 93 1007.4
20190615131156 15 103 6.4 9.7 0.00 0.00 0.00 92 1007.3
20190615130851 15 120 6.4 6.4 0.00 0.00 0.00 93 1007.3
20190615130252 15 103 3.2 8.0 0.00 0.00 0.00 93 1007.4
20190615125950 15 90 8.0 8.0 0.00 0.00 0.00 93 1007.3
20190615125647 15 123 3.2 6.4 0.00 0.00 0.00 93 1007.4
20190615125346 15 180 0.0 1.6 0.00 0.00 0.00 93 1007.4
20190615125045 14 180 0.0 1.6 0.00 0.00 0.00 93 1007.4
20190615124745 14 225 0.0 1.6 0.00 0.00 0.00 93 1007.4
20190615124442 14 225 0.0 1.6 0.00 0.00 0.00 92 1007.4
20190615124142 14 180 1.6 1.6 0.00 0.00 0.00 93 1007.4
20190615123840 14 225 0.0 1.6 0.00 0.00 0.00 93 1007.4
20190615123541 14 225 0.0 1.6 0.00 0.00 0.00 93 1007.4
20190615123238 14 225 0.0 1.6 0.00 0.00 0.00 93 1007.2
20190615122937 14 180 0.0 0.0 0.00 0.00 0.00 93 1007.2
20190615122028 14 225 0.0 1.6 0.00 0.00 0.00 93 1007.0
20190615121727 14 225 1.6 1.6 0.00 0.00 0.00 93 1007.1
20190615121426 14 225 0.0 0.0 0.00 0.00 0.00 93 1007.0
20190615121125 14 225 0.0 0.0 0.00 0.00 0.00 93 1007.0
20190615120826 14 225 0.0 0.0 0.00 0.00 0.00 93 1006.9
20190615120523 14 270 0.0 0.0 0.00 0.00 0.00 93 1006.9
20190615120222 14 270 0.0 1.6 0.00 0.00 0.00 93 1007.0
20190615115921 14 270 1.6 1.6 0.00 0.00 0.00 93 1007.0
20190615115620 14 270 1.6 3.2 0.00 0.00 0.00 93 1007.1
20190615115320 14 270 1.6 1.6 0.00 0.00 0.00 93 1007.1
20190615115017 14 270 1.6 1.6 0.00 0.00 0.00 93 1007.1
20190615114719 14 252 1.6 3.2 0.00 0.00 0.00 93 1007.0
20190615114415 14 270 1.6 1.6 0.00 0.00 0.00 93 1007.2
20190615114114 14 270 1.6 3.2 0.00 0.00 0.00 93 1007.2
20190615113815 14 270 1.6 3.2 0.00 0.00 0.00 93 1007.1
20190615113512 14 270 3.2 3.2 0.00 0.00 0.00 93 1007.1
20190615113211 14 225 0.0 0.0 0.00 0.00 0.00 93 1007.1
20190615112910 14 225 0.0 0.0 0.00 0.00 0.00 93 1007.1
20190615112608 14 225 0.0 1.6 0.00 0.00 0.00 93 1007.2
20190615112307 14 225 0.0 0.0 0.00 0.00 0.00 93 1007.2
20190615112006 13 225 0.0 0.0 0.00 0.00 0.00 93 1007.1
20190615111705 13 225 0.0 0.0 0.00 0.00 0.00 93 1007.1
20190615111404 13 225 0.0 0.0 0.00 0.00 0.00 93 1007.1
20190615111103 13 225 0.0 0.0 0.00 0.00 0.00 93 1007.1
20190615110502 13 202 0.0 0.0 0.00 0.00 0.00 94 1007.0
20190615110201 13 202 0.0 0.0 0.00 0.00 0.00 93 1007.0
20190615105858 13 202 0.0 0.0 0.00 0.00 0.00 93 1007.0
20190615105557 13 202 0.0 0.0 0.00 0.00 0.00 94 1007.0
20190615105305 13 202 0.0 0.0 0.00 0.00 0.00 94 1006.9
20190615104654 13 202 0.0 0.0 0.00 0.00 0.00 94 1006.9
20190615104354 13 202 0.0 0.0 0.00 0.00 0.00 94 1006.9
20190615104052 13 270 0.0 0.0 0.00 0.00 0.00 94 1006.8
20190615103751 13 270 0.0 0.0 0.00 0.00 0.00 94 1006.8
20190615103451 13 270 0.0 1.6 0.00 0.00 0.00 93 1006.8
20190615103148 13 270 1.6 3.2 0.00 0.00 0.00 93 1006.8
20190615102547 13 270 3.2 3.2 0.00 0.00 0.00 94 1006.9
20190615102245 13 270 1.6 1.6 0.00 0.00 0.00 94 1006.9
20190615101945 13 258 1.6 1.6 0.00 0.00 0.00 94 1006.9
20190615101342 13 225 0.0 0.0 0.00 0.00 0.00 94 1006.9
20190615101041 13 225 0.0 1.6 0.00 0.00 0.00 95 1006.8
20190615100740 13 225 1.6 1.6 0.00 0.00 0.00 94 1006.8
20190615100439 13 270 0.0 3.2 0.00 0.00 0.00 94 1006.8
20190615100140 13 270 1.6 1.6 0.00 0.00 0.00 94 1006.8
20190615095840 13 225 0.0 0.0 0.00 0.00 0.00 94 1006.9
20190615095538 12 225 0.0 0.0 0.00 0.00 0.00 94 1006.8
20190615095234 12 225 0.0 0.0 0.00 0.00 0.00 94 1006.8
20190615094634 12 225 0.0 0.0 0.00 0.00 0.00 94 1006.9
20190615094332 12 225 0.0 1.6 0.00 0.00 0.00 94 1006.8
20190615094031 12 180 1.6 1.6 0.00 0.00 0.00 93 1006.9
20190615093428 12 180 0.0 0.0 0.00 0.00 0.00 93 1007.0
20190615093126 12 180 0.0 1.6 0.00 0.00 0.00 93 1007.0
20190615092825 12 180 0.0 1.6 0.00 0.00 0.00 93 1006.9
20190615092525 12 180 0.0 0.0 0.00 0.00 0.00 93 1006.8
20190615092223 12 180 0.0 1.6 0.00 0.00 0.00 93 1006.8
20190615091922 12 148 1.6 1.6 0.00 0.00 0.00 93 1006.9
20190615091621 12 180 0.0 1.6 0.00 0.00 0.00 92 1006.8
20190615091320 12 180 0.0 1.6 0.00 0.00 0.00 92 1006.8
20190615090719 12 180 0.0 1.6 0.00 0.00 0.00 92 1007.0
20190615090419 12 216 0.0 1.6 0.00 0.00 0.00 92 1007.1
20190615090115 12 225 0.0 0.0 0.00 0.00 0.00 93 1007.0
20190615085513 12 225 0.0 0.0 0.00 0.00 0.00 92 1007.1
20190615085212 12 225 0.0 0.0 0.00 0.00 0.00 93 1007.1
20190615084613 12 315 0.0 3.2 0.00 0.00 0.00 93 1007.0
20190615084313 12 315 3.2 3.2 0.00 0.00 0.00 93 1007.1
20190615084011 12 315 1.6 3.2 0.00 0.00 0.00 93 1007.2
20190615083706 12 292 1.6 3.2 0.00 0.00 0.00 93 1007.1
20190615083405 12 270 1.6 3.2 0.00 0.00 0.00 92 1007.2
20190615083104 12 270 3.2 3.2 0.00 0.00 0.00 92 1007.1
20190615082805 12 225 1.6 1.6 0.00 0.00 0.00 92 1007.0
20190615082502 13 225 1.6 1.6 0.00 0.00 0.00 92 1007.1
20190615082201 13 225 1.6 3.2 0.00 0.00 0.00 92 1007.0
20190615081901 13 225 1.6 1.6 0.00 0.00 0.00 91 1007.0
20190615081259 13 225 1.6 1.6 0.00 0.00 0.00 91 1007.1
20190615080957 13 225 0.0 1.6 0.00 0.00 0.00 91 1007.1
20190615080354 13 270 0.0 1.6 0.00 0.00 0.00 91 1007.0
20190615080055 13 225 0.0 0.0 0.00 0.00 0.00 91 1007.2
20190615075752 13 270 0.0 1.6 0.00 0.00 0.00 91 1007.1
20190615075451 13 270 0.0 1.6 0.00 0.00 0.00 91 1007.2
20190615075151 13 270 0.0 3.2 0.00 0.00 0.00 91 1007.2
20190615074849 13 270 1.6 4.8 0.00 0.00 0.00 91 1007.1
20190615074548 13 283 3.2 3.2 0.00 0.00 0.00 91 1007.2
20190615074248 13 315 1.6 4.8 0.00 0.00 0.00 91 1007.2
20190615073947 14 303 3.2 4.8 0.00 0.00 0.00 90 1007.3
20190615073648 14 270 3.2 4.8 0.00 0.00 0.00 90 1007.3
20190615073343 14 292 4.8 4.8 0.00 0.00 0.00 90 1007.2
20190615073042 14 281 4.8 4.8 0.00 0.00 0.00 90 1007.3
20190615072741 14 270 3.2 3.2 0.00 0.00 0.00 89 1007.2
20190615072440 14 270 1.6 4.8 0.00 0.00 0.00 89 1007.2
20190615071730 14 270 4.8 4.8 0.00 0.00 0.00 88 1007.2
20190615071541 14 270 4.8 4.8 0.00 0.00 0.00 88 1007.2
20190615071235 14 270 3.2 3.2 0.00 0.00 0.00 89 1007.2
20190615070936 14 270 1.6 1.6 0.00 0.00 0.00 88 1007.1
20190615070633 14 225 0.0 3.2 0.00 0.00 0.00 88 1007.1
20190615070332 14 270 1.6 4.8 0.00 0.00 0.00 89 1007.2
20190615070031 15 270 4.8 4.8 0.00 0.00 0.00 88 1007.3
20190615065732 15 270 4.8 4.8 0.00 0.00 0.00 88 1007.3
20190615065429 15 238 1.6 4.8 0.00 0.00 0.00 88 1007.4
20190615064827 15 270 1.6 4.8 0.00 0.00 0.00 87 1007.4
20190615064526 15 263 1.6 1.6 0.00 0.00 0.00 87 1007.4
20190615064224 15 238 1.6 1.6 0.00 0.00 0.00 87 1007.4
20190615063324 15 227 1.6 1.6 0.00 0.00 0.00 86 1007.6
20190615063020 15 234 1.6 1.6 0.00 0.00 0.00 86 1007.5
20190615062418 15 225 0.0 3.2 0.00 0.00 0.00 86 1007.8
20190615061816 15 245 1.6 3.2 0.00 0.00 0.00 86 1007.8
20190615061519 15 225 1.6 3.2 0.00 0.00 0.00 86 1007.8
20190615060916 15 234 1.6 3.2 0.00 0.00 0.00 86 1007.8
20190615060611 15 247 0.0 3.2 0.00 0.00 0.00 86 1007.9
20190615060009 15 247 1.6 3.2 0.00 0.00 0.00 86 1008.0
20190615055108 15 225 1.6 3.2 0.00 0.00 0.00 86 1007.9
20190615054807 15 225 1.6 3.2 0.00 0.00 0.00 85 1008.0
20190615054507 15 236 3.2 3.2 0.00 0.00 0.00 85 1008.1
20190615054202 15 270 1.6 3.2 0.00 0.00 0.00 85 1007.9
20190615053600 15 270 0.0 3.2 0.00 0.00 0.00 85 1008.0
20190615053303 15 234 1.6 4.8 0.00 0.00 0.00 85 1008.0
20190615052958 15 225 1.6 3.2 0.00 0.00 0.00 85 1008.0
20190615052356 15 270 1.6 1.6 0.00 0.00 0.00 85 1008.0
20190615052058 15 225 1.6 3.2 0.00 0.00 0.00 85 1007.9
20190615051755 15 225 1.6 1.6 0.00 0.00 0.00 84 1007.9
20190615050850 15 225 1.6 3.2 0.00 0.00 0.00 84 1008.0
20190615050248 15 238 1.6 3.2 0.00 0.00 0.00 84 1007.8
20190615045947 16 270 3.2 3.2 0.00 0.00 0.00 83 1008.0
20190615045647 16 225 1.6 1.6 0.00 0.00 0.00 84 1007.9
20190615045044 16 234 1.6 1.6 0.00 0.00 0.00 83 1007.9
20190615044742 16 238 1.6 3.2 0.00 0.00 0.00 83 1007.9
20190615044441 16 227 3.2 4.8 0.00 0.00 0.00 83 1007.7
20190615043544 16 263 1.6 1.6 0.00 0.00 0.00 82 1007.8
20190615043240 16 225 1.6 1.6 0.00 0.00 0.00 83 1007.9
20190615042337 16 229 1.6 3.2 0.00 0.00 0.00 82 1007.6
20190615041735 16 256 0.0 3.2 0.00 0.00 0.00 82 1007.7
20190615041129 16 225 0.0 1.6 0.00 0.00 0.00 82 1007.7
20190615040828 16 225 0.0 3.2 0.00 0.00 0.00 82 1007.4
20190615040527 16 225 1.6 3.2 0.00 0.00 0.00 82 1007.6
20190615035928 16 256 1.6 3.2 0.00 0.00 0.00 81 1007.6
20190615035626 16 225 0.0 3.2 0.00 0.00 0.00 81 1007.3
20190615035322 16 225 0.0 3.2 0.00 0.00 0.00 81 1007.6
20190615034724 16 243 1.6 3.2 0.00 0.00 0.00 81 1007.5
20190615034419 16 225 1.6 4.8 0.00 0.00 0.00 81 1007.4
20190615034119 16 225 1.6 4.8 0.00 0.00 0.00 81 1007.6
20190615033517 16 240 3.2 6.4 0.00 0.00 0.00 81 1007.3
20190615032914 16 234 1.6 4.8 0.00 0.00 0.00 80 1007.6
20190615032316 16 263 4.8 4.8 0.00 0.00 0.00 80 1007.1
20190615032016 16 252 4.8 4.8 0.00 0.00 0.00 79 1007.1
20190615031107 17 236 3.2 4.8 0.00 0.00 0.00 79 1007.5
20190615030806 17 245 3.2 4.8 0.00 0.00 0.00 79 1007.2
20190615030506 17 249 3.2 4.8 0.00 0.00 0.00 79 1007.3
20190615025904 17 247 1.6 4.8 0.00 0.00 0.00 78 1007.5
20190615025604 17 256 3.2 4.8 0.00 0.00 0.00 78 1007.3
20190615025307 17 227 1.6 4.8 0.00 0.00 0.00 78 1007.3
20190615024751 17 240 3.2 3.2 0.00 0.00 0.00 78 1007.1
20190615024658 17 240 3.2 3.2 0.00 0.00 0.00 78 1007.1
20190615024403 17 247 3.2 3.2 0.00 0.00 0.00 78 1007.4
20190615024057 17 225 1.6 4.8 0.00 0.00 0.00 77 1007.4
20190615023756 17 225 1.6 4.8 0.00 0.00 0.00 77 1007.2
20190615023459 17 227 4.8 6.4 0.00 0.00 0.00 77 1007.3
20190615023156 17 231 1.6 6.4 0.00 0.00 0.00 76 1007.2
20190615022853 17 240 3.2 6.4 0.00 0.00 0.00 76 1007.1
20190615022249 17 234 1.6 4.8 0.00 0.00 0.00 76 1007.2
20190615021948 17 229 1.6 4.8 0.00 0.00 0.00 76 1007.4
20190615021655 17 255 3.2 4.8 0.00 0.00 0.00 76 1007.4
20190615021348 17 230 4.8 4.8 0.00 0.00 0.00 76 1007.3
20190615021045 18 227 3.2 6.4 0.00 0.00 0.00 75 1007.3
20190615020443 18 254 4.8 8.0 0.00 0.00 0.00 74 1007.3
20190615020143 18 263 6.4 8.0 0.00 0.00 0.00 75 1007.3
20190615015841 18 238 3.2 6.4 0.00 0.00 0.00 74 1007.4
20190615015539 18 238 1.6 4.8 0.00 0.00 0.00 74 1007.3
20190615014939 18 202 3.2 8.0 0.00 0.00 0.00 73 1007.3
20190615014639 18 258 4.8 8.0 0.00 0.00 0.00 73 1007.4
20190615014335 18 235 6.4 9.7 0.00 0.00 0.00 73 1007.4
20190615013734 18 270 8.0 8.0 0.00 0.00 0.00 72 1007.3
20190615013433 19 230 1.6 8.0 0.00 0.00 0.00 72 1007.3
20190615013135 19 250 4.8 6.4 0.00 0.00 0.00 72 1007.2
20190615012829 19 254 4.8 8.0 0.00 0.00 0.00 72 1007.1
20190615012528 19 270 6.4 9.7 0.00 0.00 0.00 71 1007.2
20190615012227 19 234 6.4 9.7 0.00 0.00 0.00 71 1007.2
20190615011630 19 243 4.8 8.0 0.00 0.00 0.00 71 1007.1
20190615011325 20 252 6.4 9.7 0.00 0.00 0.00 71 1007.2
20190615010722 20 236 6.4 11.3 0.00 0.00 0.00 71 1007.2
20190615005818 20 243 4.8 9.7 0.00 0.00 0.00 70 1007.1
20190615005518 20 265 6.4 9.7 0.00 0.00 0.00 70 1007.2
20190615005218 20 247 4.8 8.0 0.00 0.00 0.00 70 1007.3
20190615004615 20 258 4.8 9.7 0.00 0.00 0.00 70 1007.3
20190615004321 20 237 9.7 9.7 0.00 0.00 0.00 70 1007.3
20190615004012 20 243 6.4 11.3 0.00 0.00 0.00 69 1007.1
20190615003714 20 270 6.4 9.7 0.00 0.00 0.00 69 1007.2
20190615003410 20 261 6.4 9.7 0.00 0.00 0.00 68 1007.3
20190615003108 20 270 9.7 11.3 0.00 0.00 0.00 68 1007.4
20190615002929 20 255 8.0 9.7 0.00 0.00 0.00 68 1007.5
20190615002807 20 255 8.0 9.7 0.00 0.00 0.00 68 1007.5
20190615002507 20 290 8.0 9.7 0.00 0.00 0.00 68 1007.6
20190615002205 21 232 8.0 9.7 0.00 0.00 0.00 68 1007.6
20190615001904 21 240 8.0 11.3 0.00 0.00 0.00 67 1007.4
20190615001603 21 232 8.0 11.3 0.00 0.00 0.00 68 1007.4
20190615001303 21 245 8.0 11.3 0.00 0.00 0.00 67 1007.4
20190615000700 21 249 6.4 11.3 0.00 0.00 0.00 66 1007.4
20190615000059 21 250 9.7 12.9 0.00 0.00 0.00 66 1007.5
20190614235455 21 250 8.0 11.3 0.00 0.00 0.00 65 1007.5
20190614235154 22 191 3.2 11.3 0.00 0.00 0.00 65 1007.5
20190614234854 22 242 8.0 11.3 0.00 0.00 0.00 65 1007.5
20190614234257 22 220 4.8 12.9 0.00 0.00 0.00 64 1007.4
20190614233950 22 240 8.0 9.7 0.00 0.00 0.00 64 1007.5
20190614233351 22 265 12.9 12.9 0.00 0.00 0.00 63 1007.5
20190614232750 22 240 6.4 9.7 0.00 0.00 0.00 63 1007.5
20190614232143 22 272 6.4 11.3 0.00 0.00 0.00 61 1007.4
20190614231845 23 256 4.8 11.3 0.00 0.00 0.00 61 1007.5
20190614231546 -17 282 6.4 14.5 0.00 0.00 0.00 61 100.7
20190614231543 23 282 6.4 14.5 0.00 0.00 0.00 61 1007.4
20190614230939 23 263 9.7 16.1 0.00 0.00 0.00 59 1007.4
20190614230641 24 256 6.4 12.9 0.00 0.00 0.00 59 1007.5
20190614230341 25 265 11.3 11.3 0.00 0.00 0.00 59 1007.4
20190614230035 25 182 3.2 8.0 0.00 0.00 0.00 59 1007.7
20190614225734 24 146 3.2 6.4 0.00 0.00 0.00 59 1007.5
20190614225436 24 220 3.2 9.7 0.00 0.00 0.00 60 1007.5
20190614224831 24 247 8.0 16.1 0.00 0.00 0.00 60 1007.7
20190614224530 24 254 8.0 16.1 0.00 0.00 0.00 60 1007.6
20190614224229 24 252 11.3 11.3 0.00 0.00 0.00 61 1007.6